Regional Weather Roundup
Issued by NWS New Orleans/Baton Rouge, LA

Home | Current Version | Previous Version | Text Only | Print | Product List | Glossary On
Versions: 1 2 3 4 5 6 7 8 9 10 11 12 13 14 15 16 17 18 19 20 21 22 23 24 25 26 27 28 29 30 31 32 33 34 35 36 37 38 39 40 41 42 43 44 45 46 47 48 49 50
000
ASUS44 KLIX 290311
RWRLIX
NEW ORLEANS REGIONAL WEATHER ROUNDUP
NATIONAL WEATHER SERVICE NEW ORLEANS LA
1000 PM CDT SAT MAR 28 2015

NOTE: "FAIR" INDICATES FEW OR NO CLOUDS BELOW 12,000 FEET WITH NO
      SIGNIFICANT WEATHER AND/OR OBSTRUCTIONS TO VISIBILITY.
      SKY/WX - SKY CONDITION AND SIGNIFICANT WEATHER.
      TMP - AIR TEMPERATURE.     DP    - DEWPOINT TEMPERATURE.
      RH  - RELATIVE HUMIDITY.   PRES  - PRESSURE.
      HI  - HEAT INDEX.          WCI   - WIND CHILL INDEX.

*  THESE STATIONS ARE NOT NWS OR FAA STATIONS AND ARE NOT UNDER
   NWS QUALITY CONTROL.

LAZ038-040-048-061>063-065>067-069-290400-
SOUTHEAST LOUISIANA

CITY           SKY/WX    TMP DP  RH WIND       PRES   REMARKS
N.O. AUDUBON   NOT AVBL
N.O. INTL ARPT CLEAR     58  48  69 SE8       30.23R
N.O. LAKEFRONT CLEAR     60  49  66 SE8       30.24R
SLIDELL        CLEAR     53  48  83 CALM      30.23R
BATON ROUGE    CLEAR     58  49  72 SE6       30.20R
BOOTHVILLE     CLEAR     57  50  77 E6        30.25R
BELLE CHASSE   CLEAR     57  50  77 SE6       30.23R
BOGALUSA*        N/A     57  46  65 E5        30.25R
GALLIANO*      CLEAR     59  55  84 CALM      30.23S
NEW ROADS*       N/A     62  50  66 S5        30.19R
GONZALES*        N/A     60  52  73 SE6       30.21R
HAMMOND*       CLEAR     55  48  76 SE3       30.24R
HOUMA*         CLEAR     54  52  92 E5        30.22R
PORT FOURCHON* CLEAR     64  55  72 SE10      30.25S

$$

MSZ070-080>082-290400-
SOUTHERN MISSISSIPPI

CITY           SKY/WX    TMP DP  RH WIND       PRES   REMARKS
MCCOMB         CLEAR     54  40  59 E7        30.23R
GULFPORT       CLEAR     55  46  71 N6        30.24R
BILOXI           N/A     53  48  81 NE5       30.24R
PASCAGOULA     CLEAR     49  46  90 CALM      30.26R

$$

COASTAL OBSERVATIONS
LAKE AND NEARSHORE STATIONS

STATION/POSITION TIME  TEMP    WIND        PRES    WAVE
                       AIR SEA DIR/SP/G            HT/PER
                 (UTC) (F)     (DEG/KT/KT) (MB)    (FT/S)
PASCAGOULA       0200   60     170/  5/  7 1023.9
WAVELAND YACHT   0200   60 66  180/  7/ 10 1023.2
GRAND ISLE       0200   62 67  130/  7/ 11 1023.0
SOUTHWEST PASS   0200   62 53  120/ 10/ 10 1024.0
NEW CANAL        0200   60     140/  3/  7 1023.6
SHELL BEACH      0200   58 68  140/  9/ 11 1023.4

OFFSHORE STATIONS

STATION/POSITION TIME  TEMP    WIND        PRES    WAVE
                       AIR SEA DIR/SP/G            HT/PER
                 (UTC) (F)     (DEG/KT/KT) (MB)    (FT/S)
64 S DAUPHIN ISL 0250   61 71  110/  4/  6 1025.1    1/ 4

$$




USA.gov is the U.S. government's official web portal to all federal, state and local government web resources and services.